Tracking 22779 objects as of 10-Apr-2021
HD Live streaming from Space Station
objects crossing your sky now

COSMOS 2058 DEB

Track COSMOS 2058 DEB now!
10-day predictions


NORAD ID: 43343
Int'l Code: 1990-010C
Perigee: 521.5 km
Apogee: 525.9 km
Inclination: 82.5 °
Period: 95.0 minutes
Semi major axis: 6894 km
RCS: Unknown
Launch date: January 30, 1990
Source: Commonwealth of Independent States (former USSR) (CIS)
Launch site: PLESETSK MISSILE AND SPACE COMPLEX (PKMTR)

Note: This is SATELLITE DEBRIS
aabbcc
Your satellite tracking list
Your tracking list is empty




NASA's NSSDC Master Catalog

Two Line Element Set (TLE):
1 43343U 90010C   21099.88231415  .00006417  00000-0  32829-3 0  9995
2 43343  82.4631 324.4227 0003207 142.4392 217.7066 15.16468035232470
Source of the keplerian elements: AFSPC